Location: Peterborough
(44.3091°N, 78.3197°W)
Time: 06:17:44
(UTC-04:00)

Vanguard 1 - Visible Passes

Search period start: 22 March 2023 00:00
Search period end: 01 April 2023 00:00
Orbit: 649 x 3831 km, 34.3° (Epoch: 21 March)

Date Brightness Start Highest point End Pass type
(mag) Time Alt. Az. Time Alt. Az. Time Alt. Az.
22 Mar 12.1 21:43:35 10° W 21:58:07 37° SSW 22:02:48 27° S visible
23 Mar 12.6 19:36:55 10° W 19:57:02 56° SSW 20:08:48 10° ESE visible
23 Mar 12.3 22:05:01 10° W 22:18:09 31° SW 22:22:21 24° S visible
24 Mar 12.6 19:58:03 10° W 20:17:34 53° SSW 20:29:01 10° SE visible
24 Mar 12.5 22:26:43 10° W 22:38:01 24° SW 22:41:54 20° SSW visible
25 Mar 12.7 20:19:16 10° W 20:37:58 48° SSW 20:48:48 11° SE visible
25 Mar 12.8 22:48:54 10° W 22:57:46 18° SW 23:01:29 15° SSW visible
26 Mar 12.7 20:40:33 10° W 20:58:13 42° SSW 21:08:24 12° SSE visible
26 Mar 13.1 23:12:25 10° WSW 23:17:22 13° SW 23:21:05 11° SW visible
27 Mar 12.8 21:01:58 10° W 21:18:18 35° SW 21:28:01 12° SSE visible
28 Mar 12.9 21:23:37 10° W 21:38:13 29° SW 21:47:40 11° S visible
29 Mar 13.0 21:45:41 10° W 21:57:59 22° SW 22:06:42 10° S visible
30 Mar 13.1 19:37:27 10° W 19:57:34 45° SSW 20:10:43 10° SE visible
30 Mar 13.2 22:08:34 10° W 22:17:37 16° SW 22:24:38 10° SSW visible
31 Mar 13.1 19:58:49 10° W 20:17:44 39° SW 20:30:23 10° SSE visible
31 Mar 13.5 22:34:25 10° WSW 22:37:08 11° WSW 22:39:40 10° SW visible
